Volver al catálogo

SL-12 R/B(2)

ActivoGEO
NORAD 20266·ROCKET BODY·🇷🇺 Russia

Lanzado Sep 28, 1989 desde Baikonur Cosmodrome

Loading…

TLE

ActualizadoSource: Space-Track

Época: Sep 14, 2026, 03:15 UTC

1 20266U 89081D   26257.13545701 -.00000306  00000-0  00000-0 0  9990
2 20266  11.7836 332.2761 0025707 129.5873 239.6268  1.00609449120253

Sigue SL-12 R/B(2) en tiempo real con AllMySat

Download on the App Store